Location: Ballard
(38.3614°N, 94.1431°W)
Time: 11:21:46
(UTC-06:00)

Envisat - Pass Details

Date: 30 October 2019
Orbit: 764 x 766 km, 98.1° (Epoch: 14 November)

Event Time Altitude Azimuth Distance (km) Brightness Sun altitude
Rises 06:45:32 0° 37° (NE) 3,235 6.6 -11.3°
Reaches altitude 10° 06:49:27 10° 67° (ENE) 2,302 6.4 -10.6°
Maximum altitude 06:51:24 12° 90° (E) 2,154 6.8 -10.2°
Drops below altitude 10° 06:53:21 10° 113° (ESE) 2,296 7.0 -9.8°
Sets 06:57:13 0° 143° (SE) 3,215 7.0 -9.1°
